FW1555 Blauvelt NY US current weather conditions

sailwx.info

Wind from 116 at 3 knots gusting 13

Air temperature 21.1° C
Dewpoint 20.6° C

Last reported at 2020-Aug-04 19:00 UTC.
Time now 2020-Aug-06 09:36 UTC

Location: N 41°04' W 073°57'.
View on Google Maps.

See reports from other nearby stations

  
Tides and Currents Weather Stations Pressure Air Temp Water Temp Dewpoint Dewpoint Depression Visibility Wind Speed Wind Dir Waves Ship Positions
date/time (UTC)wind fromknots sea level pressurealtimeterstation pressurevisibilityair tempwater tempwave heightnotes
2020-Aug-04 19:00 116 3 gusting 13 21.1
2020-Aug-04 18:46
2020-Aug-04 18:30 281 6 gusting 22 21.1
2020-Aug-04 18:15
2020-Aug-04 17:48 142 4 gusting 16 23.9
2020-Aug-04 17:31 345 4 gusting 19 23.9
2020-Aug-04 17:17 061 3 gusting 20 23.9
2020-Aug-04 17:01 157 5 gusting 13 23.9
2020-Aug-04 16:46 051 4 gusting 17 23.9
2020-Aug-04 16:31 113 3 gusting 21 23.9
2020-Aug-04 16:16 076 5 gusting 16 23.9
2020-Aug-04 16:01 063 3 gusting 13 23.9
2020-Aug-04 15:46 163 3 gusting 12 24.4
2020-Aug-04 15:32 325 3 gusting 16 24.4
2020-Aug-04 15:16 348 1 gusting 7 24.4
2020-Aug-04 14:46 079 2 gusting 6 25.0
2020-Aug-04 14:30 150 0 gusting 8 24.4
2020-Aug-04 14:16 340 0 gusting 6 24.4
2020-Aug-04 13:45 355 23.9
2020-Aug-04 13:30 036 0 gusting 2 23.3
2020-Aug-04 13:16 037 23.3
2020-Aug-04 13:00 315 22.8
2020-Aug-04 12:45 296 22.8
2020-Aug-04 12:15 295 21.7
2020-Aug-04 11:46 044 21.7
2020-Aug-04 11:30 044 21.7
2020-Aug-04 11:16 044 21.7
2020-Aug-04 11:02 337 21.7
2020-Aug-04 10:46 350 21.7
2020-Aug-04 10:31 333 21.7
2020-Aug-04 10:16 333 21.7
2020-Aug-04 10:01 333 21.7
2020-Aug-04 09:46 051 21.7
2020-Aug-04 09:31 051 21.7
2020-Aug-04 09:16 051 0 gusting 1 21.7
2020-Aug-04 09:01 123 21.7